This demonstration page uses our WeatherBlox Daily Observations layout. Learn more.

Hourly Observations for September 2, 2016

Temp ( °F °C ) Dew Point ( °F °C ) Humidity (%) Winds ( mph kmh ) Pressure ( in mb ) Visibility ( mi km ) Precip ( " mm )
12:15 am 00:15 Clear 58 14.2 55 12.7 91 91 SE 6 9 30.12 1020 10 16.09344 0 0
12:35 am 00:35 Clear 57 14 55 12.5 91 91 SE 5 7 30.12 1020 10 16.09344 0 0
12:55 am 00:55 Clear 57 13.9 55 12.5 91 91 SE 5 7 30.18 1022 10 16.09344 0 0
1:15 am 01:15 Clear 57 13.7 54 12.4 92 92 SE 6 9 30.18 1022 10 16.09344 0 0
1:35 am 01:35 Clear 57 13.7 55 12.5 93 93 SSE 6 9 30.18 1022 10 16.09344 0 0
1:55 am 01:55 Clear 56 13.5 54 12 91 91 SE 6 9 30.15 1021 10 16.09344 0 0
2:15 am 02:15 Clear 55 12.8 53 11.8 94 94 SE 6 9 30.18 1022 10 16.09344 0 0
2:35 am 02:35 Clear 55 13 53 11.9 93 93 SE 6 9 30.18 1022 10 16.09344 0 0
2:55 am 02:55 Clear 55 12.8 53 11.6 92 92 SE 5 7 30.15 1021 10 16.09344 0 0
3:15 am 03:15 Clear 55 13 54 12 94 94 Calm 30.18 1022 10 16.09344 0 0
3:35 am 03:35 Clear 55 12.5 53 11.4 93 93 Calm 30.18 1022 10 16.09344 0 0
3:55 am 03:55 Clear 53 11.5 51 10.4 93 93 SE 5 7 30.18 1022 10 16.09344 0 0
4:15 am 04:15 Clear 52 11.3 51 10.3 94 94 SE 6 9 30.18 1022 10 16.09344 0 0
4:35 am 04:35 Clear 52 11 50 10.2 95 95 SE 7 11 30.15 1021 10 16.09344 0 0
4:55 am 04:55 Clear 53 11.5 51 10.6 94 94 SE 6 9 30.15 1021 10 16.09344 0 0
5:15 am 05:15 Clear 54 12 52 11.2 95 95 SE 6 9 30.15 1021 10 16.09344 0 0
5:35 am 05:35 Clear 53 11.6 52 11 96 96 SE 6 9 30.15 1021 10 16.09344 0 0
5:55 am 05:55 Clear 53 11.7 52 11 96 96 SE 7 11 30.15 1021 10 16.09344 0 0
6:15 am 06:15 Clear 54 12.2 53 11.5 96 96 SE 7 11 30.15 1021 10 16.09344 0 0
6:35 am 06:35 Clear 55 12.7 54 12 96 96 SSE 6 9 30.15 1021 10 16.09344 0 0
6:55 am 06:55 Clear 55 12.6 53 11.9 96 96 SSE 7 11 30.15 1021 10 16.09344 0 0
7:15 am 07:15 Sunny 55 12.5 53 11.8 96 96 SSE 6 9 30.15 1021 10 16.09344 0 0
7:35 am 07:35 Sunny 55 13 54 12.2 95 95 SSE 6 9 30.15 1021 10 16.09344 0 0
7:55 am 07:55 Sunny 56 13.6 55 12.8 95 95 SSE 7 11 30.15 1021 10 16.09344 0 0
8:15 am 08:15 Sunny 58 14.5 56 13.5 94 94 SSE 7 11 30.12 1020 10 16.09344 0 0
8:35 am 08:35 Sunny 59 15.1 57 14 93 93 SSE 10 17 30.12 1020 10 16.09344 0 0
8:55 am 08:55 Sunny 60 15.8 58 14.2 90 90 SSE 9 15 30.12 1020 10 16.09344 0 0
9:15 am 09:15 Sunny 62 16.5 58 14.6 89 89 S 10 17 30.12 1020 10 16.09344 0 0
9:35 am 09:35 Sunny 63 17 58 14.7 86 86 S 15 24 30.12 1020 10 16.09344 0 0
9:55 am 09:55 Sunny 64 17.8 58 14.6 82 82 S 18 30 30.09 1019 10 16.09344 0 0
10:15 am 10:15 Sunny 65 18.6 58 14.3 76 76 S 18 30 30.09 1019 10 16.09344 0 0
10:35 am 10:35 Partly Cloudy 68 19.8 57 13.9 69 69 S 14 22 30.09 1019 10 16.09344 0 0
10:55 am 10:55 Partly Cloudy 68 20.2 56 13.5 66 66 S 15 24 30.09 1019 10 16.09344 0 0
11:15 am 11:15 Mostly Cloudy 70 20.9 56 13.6 63 63 SSE 18 30 30.09 1019 10 16.09344 0 0
11:35 am 11:35 Partly Cloudy 69 20.8 55 12.9 61 61 SSE 15 24 30.09 1019 10 16.09344 0 0
11:55 am 11:55 Partly Cloudy 71 21.4 56 13.1 59 59 SSE 20 31 30.06 1018 10 16.09344 0 0
12:15 pm 12:15 Partly Cloudy 71 21.5 56 13.2 59 59 S 17 28 30.06 1018 10 16.09344 0 0
12:35 pm 12:35 Partly Cloudy 71 21.7 56 13.1 58 58 S 16 26 30.03 1017 10 16.09344 0 0
12:55 pm 12:55 Partly Cloudy 72 22.3 55 12.8 55 55 SSE 16 26 30.03 1017 10 16.09344 0 0
1:15 pm 13:15 Partly Cloudy 73 22.5 55 12.7 54 54 S 12 19 30.03 1017 10 16.09344 0 0
1:35 pm 13:35 Sunny 73 22.7 55 12.5 53 53 SSE 16 26 30.03 1017 10 16.09344 0 0
1:55 pm 13:55 Partly Cloudy 74 23.6 54 12.1 49 49 S 14 22 30.03 1017 10 16.09344 0 0
2:15 pm 14:15 Partly Cloudy 75 23.9 54 12.3 48 48 SSE 17 28 30.03 1017 10 16.09344 0 0
2:35 pm 14:35 Sunny 76 24.6 53 11.7 45 45 SSE 13 20 30 1016 10 16.09344 0 0
2:55 pm 14:55 Sunny 76 24.3 52 11.2 44 44 SSE 15 24 30.03 1017 10 16.09344 0 0
3:15 pm 15:15 Sunny 76 24.4 52 11.3 44 44 SSE 16 26 30 1016 10 16.09344 0 0
3:35 pm 15:35 Sunny 76 24.6 53 11.6 44 44 SSE 17 28 29.97 1015 10 16.09344 0 0
3:55 pm 15:55 Sunny 76 24.6 54 12 45 45 SSE 16 26 29.97 1015 10 16.09344 0 0
4:15 pm 16:15 Sunny 77 24.8 54 12.2 45 45 SSE 18 30 29.97 1015 10 16.09344 0 0
4:35 pm 16:35 Sunny 76 24.5 53 11.8 45 45 SSE 17 28 29.97 1015 10 16.09344 0 0
4:55 pm 16:55 Sunny 76 24.4 53 11.5 44 44 SSE 15 24 29.97 1015 10 16.09344 0 0
5:15 pm 17:15 Sunny 74 23.5 53 11.7 48 48 SSE 13 20 29.97 1015 10 16.09344 0 0
5:35 pm 17:35 Sunny 76 24.6 53 11.6 44 44 SSE 15 24 29.94 1014 10 16.09344 0 0
5:55 pm 17:55 Sunny 76 24.5 53 11.9 45 45 SSE 15 24 29.91 1013 10 16.09344 0 0
6:15 pm 18:15 Sunny 76 24.2 54 12.1 47 47 SE 16 26 29.91 1013 10 16.09344 0 0
6:35 pm 18:35 Sunny 73 22.7 54 12.4 52 52 SSE 9 15 29.97 1015 10 16.09344 0 0
6:55 pm 18:55 Sunny 72 22.2 55 12.9 56 56 SSE 10 17 29.97 1015 10 16.09344 0 0
7:15 pm 19:15 Sunny 71 21.5 56 13.1 59 59 SE 9 15 29.94 1014 10 16.09344 0 0
7:35 pm 19:35 Sunny 70 21 55 13 60 60 SE 9 15 29.94 1014 10 16.09344 0 0
7:55 pm 19:55 Sunny 69 20.5 56 13.1 63 63 SE 10 17 29.94 1014 10 16.09344 0 0
8:15 pm 20:15 Clear 67 19.6 56 13.5 68 68 SE 10 17 29.97 1015 10 16.09344 0 0
8:35 pm 20:35 Clear 67 19.2 56 13.5 70 70 SE 8 13 30 1016 10 16.09344 0 0
8:55 pm 20:55 Clear 66 18.9 56 13.5 71 71 SE 9 15 30 1016 10 16.09344 0 0
9:15 pm 21:15 Clear 66 18.8 56 13.5 71 71 SE 10 17 30 1016 10 16.09344 0 0
9:35 pm 21:35 Clear 65 18.6 56 13.3 71 71 SE 10 17 30 1016 10 16.09344 0 0
9:55 pm 21:55 Clear 65 18.6 56 13.2 71 71 SE 10 17 30 1016 10 16.09344 0 0
10:15 pm 22:15 Clear 65 18.6 56 13.2 71 71 SE 14 22 30 1016 10 16.09344 0 0
10:35 pm 22:35 Clear 65 18.6 56 13.1 71 71 SE 13 20 30 1016 10 16.09344 0 0
10:55 pm 22:55 Clear 65 18.5 56 13.3 72 72 SSE 12 19 30.03 1017 10 16.09344 0 0
11:15 pm 23:15 Clear 65 18.1 56 13.3 74 74 SSE 12 19 30.03 1017 10 16.09344 0 0
11:35 pm 23:35 Clear 64 18 56 13.3 74 74 SSE 9 15 30.03 1017 10 16.09344 0 0
11:55 pm 23:55 Partly Cloudy 64 17.8 56 13.3 75 75 SSE 10 17 30 1016 10 16.09344 0 0

Powered by AerisWeather